Weather History for Gallup, NM

Change the Weather History Date:

Friday, May 4, 2012

  Actual Average Record
Temperature  
Mean Temperature 59 °F -  
Max Temperature 80 °F 68 °F 84 °F (2000)
Min Temperature 39 °F 30 °F 26 °F (1991)
Degree Days  
Heating Degree Days 6    
Growing Degree Days 9 (Base 50)    
Moisture  
Dew Point 16 °F    
Average Humidity 20    
Maximum Humidity 45    
Minimum Humidity 8    
Precipitation  
Precipitation 0.00 in - - ()
Sea Level Pressure  
Sea Level Pressure 29.77 in    
Wind  
Wind Speed 9 mph (SW)    
Max Wind Speed 21 mph    
Max Gust Speed 30 mph    
Visibility 10 miles    
Events      
Averages and records for this station are not official NWS values.
T = Trace of Precipitation, MM = Missing Value Source: NWS Daily Summary

Daily Weather History Graph

Daily Weather History Graph

Search for Another Location

Airport:

Trip Planner

Search our weather history database for the weather conditions in past years. The results will help you decide how hot, cold, wet, or windy it might be!

Date:

Astronomy

May. 04, 2012 Rise Set
Actual Time 6:19 AM MDT 8:04 PM MDT
Civil Twilight 5:52 AM MDT 8:32 PM MDT
Nautical Twilight 5:19 AM MDT 9:05 PM MDT
Astronomical Twilight 4:43 AM MDT 9:40 PM MDT
Moon 6:47 PM MDT (5/4) 5:00 AM MDT (5/4)
Length of Visible Light 14h 39m
Length of Day
13h 44m
Waxing Gibbous, 97% of the Moon is Illuminated
May 4
Waxing Gibbous
May 5
Full
May 12
Last Quarter
May 20
New
May 28
First Quarter

Hourly Weather History & Observations

Time (MDT) Temp. Windchill Dew Point Humidity Pressure Visibility Wind Dir Wind Speed Gust Speed Precip Events Conditions
12:53 AM 51.1 °F - 18.0 °F 27% 29.78 in 10.0 mi South 3.5 mph - N/A   Clear
1:53 AM 52.0 °F - 19.9 °F 28% 29.75 in 10.0 mi South 8.1 mph - N/A   Clear
2:53 AM 48.9 °F - 19.9 °F 32% 29.77 in 10.0 mi South 9.2 mph - N/A   Clear
3:53 AM 48.9 °F - 21.0 °F 33% 29.76 in 10.0 mi South 5.8 mph - N/A   Clear
4:53 AM 43.0 °F 40.3 °F 19.9 °F 40% 29.81 in 10.0 mi WSW 4.6 mph - N/A   Clear
5:53 AM 39.0 °F 35.7 °F 19.0 °F 45% 29.84 in 10.0 mi WSW 4.6 mph - N/A   Clear
6:53 AM 39.9 °F 37.8 °F 19.0 °F 43% 29.86 in 10.0 mi ENE 3.5 mph - N/A   Clear
7:53 AM 50.0 °F - 21.9 °F 33% 29.84 in 10.0 mi Calm Calm - N/A   Clear
8:53 AM 60.1 °F - 24.1 °F 25% 29.80 in 10.0 mi SW 11.5 mph 17.3 mph N/A   Clear
9:53 AM 64.9 °F - 23.0 °F 20% 29.78 in 10.0 mi SW 13.8 mph 24.2 mph N/A   Clear
10:53 AM 69.1 °F - 19.9 °F 15% 29.78 in 10.0 mi SW 18.4 mph 23.0 mph N/A   Clear
11:53 AM 71.1 °F - 17.1 °F 13% 29.79 in 10.0 mi SW 16.1 mph 27.6 mph N/A   Clear
12:53 PM 75.9 °F - 16.0 °F 10% 29.76 in 10.0 mi West 16.1 mph 25.3 mph N/A   Clear
1:53 PM 77.0 °F - 12.9 °F 9% 29.73 in 10.0 mi West 16.1 mph 25.3 mph N/A   Clear
2:53 PM 78.1 °F - 12.9 °F 8% 29.72 in 10.0 mi SW 20.7 mph 27.6 mph N/A   Clear
3:53 PM 79.0 °F - 12.0 °F 8% 29.70 in 10.0 mi SW 18.4 mph 29.9 mph N/A   Clear
4:53 PM 79.0 °F - 14.0 °F 9% 29.72 in 10.0 mi SW 12.7 mph 28.8 mph N/A   Clear
5:53 PM 77.0 °F - 12.9 °F 9% 29.76 in 10.0 mi SW 16.1 mph 23.0 mph N/A   Clear
6:53 PM 75.0 °F - 12.9 °F 9% 29.76 in 10.0 mi WSW 19.6 mph 26.5 mph N/A   Clear
7:53 PM 71.1 °F - 12.0 °F 10% 29.73 in 10.0 mi SW 16.1 mph - N/A   Clear
8:53 PM 66.0 °F - 10.9 °F 12% 29.72 in 10.0 mi SW 11.5 mph - N/A   Clear
9:53 PM 60.1 °F - 10.0 °F 14% 29.74 in 10.0 mi SW 5.8 mph - N/A   Clear
10:53 PM 54.0 °F - 8.1 °F 16% 29.77 in 10.0 mi South 3.5 mph - N/A   Clear
11:53 PM 55.0 °F - 8.1 °F 15% 29.75 in 10.0 mi South 9.2 mph - N/A   Clear